Estación de Monte Patria - Chilecito
Ultimos registro cada 15 minutos 63
| N° | Estación | Fecha / Hora | Temperatura | Humedad | Lluvia | Velocidad | Dirección | Radiación | Presion |
| 63 | Monte Patria - Chilecito | 10-05-2026 15:30 | 29,4 | 14,1 | 0 | 0,5 | 305 | 205,6 | 934 |
| 62 | Monte Patria - Chilecito | 10-05-2026 15:15 | 29,4 | 13,6 | 0 | 0,5 | 317 | 434,4 | 933,9 |
| 61 | Monte Patria - Chilecito | 10-05-2026 15:00 | 29,5 | 14,7 | 0 | 0,5 | 320 | 421,9 | 933,9 |
| 60 | Monte Patria - Chilecito | 10-05-2026 14:45 | 29,9 | 13,5 | 0 | 0,5 | 305 | 216,9 | 934,1 |
| 59 | Monte Patria - Chilecito | 10-05-2026 14:30 | 29,7 | 13,8 | 0 | 0,5 | 310 | 146,9 | 934,1 |
| 58 | Monte Patria - Chilecito | 10-05-2026 14:15 | 29,8 | 13,6 | 0 | 0,5 | 327 | 438,1 | 934,1 |
| 57 | Monte Patria - Chilecito | 10-05-2026 14:00 | 29,8 | 13,9 | 0 | 0,5 | 324 | 150,6 | 934,2 |
| 56 | Monte Patria - Chilecito | 10-05-2026 13:45 | 30,1 | 14,3 | 0 | 0,5 | 320 | 584,4 | 934,3 |
| 55 | Monte Patria - Chilecito | 10-05-2026 13:30 | 29,9 | 14,3 | 0 | 0 | 323 | 594,4 | 934,5 |
| 54 | Monte Patria - Chilecito | 10-05-2026 13:15 | 30,2 | 12,5 | 0 | 0 | 330 | 601,9 | 934,6 |
| 53 | Monte Patria - Chilecito | 10-05-2026 13:00 | 29,8 | 13,7 | 0 | 0 | 1 | 608,1 | 934,8 |
| 52 | Monte Patria - Chilecito | 10-05-2026 12:45 | 29 | 13,2 | 0 | 0 | 10 | 610,6 | 935,1 |
| 51 | Monte Patria - Chilecito | 10-05-2026 12:30 | 29,4 | 14,5 | 0 | 0 | 3 | 609,4 | 935 |
| 50 | Monte Patria - Chilecito | 10-05-2026 12:15 | 28,2 | 14,2 | 0 | 0 | 0 | 603,1 | 935,1 |
| 49 | Monte Patria - Chilecito | 10-05-2026 12:00 | 27,5 | 14,9 | 0 | 0 | 355 | 593,1 | 935,3 |
| 48 | Monte Patria - Chilecito | 10-05-2026 11:45 | 26,4 | 19,4 | 0 | 0 | 351 | 495,6 | 935,4 |
| 47 | Monte Patria - Chilecito | 10-05-2026 11:30 | 26,1 | 19,2 | 0 | 0 | 352 | 54,4 | 935,6 |
| 46 | Monte Patria - Chilecito | 10-05-2026 11:15 | 26,2 | 19,9 | 0 | 0 | 354 | 54,4 | 935,6 |
| 45 | Monte Patria - Chilecito | 10-05-2026 11:00 | 26 | 19 | 0 | 0 | 348 | 81,9 | 935,6 |
| 44 | Monte Patria - Chilecito | 10-05-2026 10:45 | 27,9 | 11,9 | 0 | 0 | 334 | 515,6 | 935,6 |
| 43 | Monte Patria - Chilecito | 10-05-2026 10:30 | 27,2 | 13,4 | 0 | 0 | 303 | 489,4 | 935,5 |
| 42 | Monte Patria - Chilecito | 10-05-2026 10:15 | 27,9 | 10,5 | 0 | 0 | 303 | 460,6 | 935,6 |
| 41 | Monte Patria - Chilecito | 10-05-2026 10:00 | 26,3 | 11,3 | 0 | 0 | 303 | 429,4 | 935,5 |
| 40 | Monte Patria - Chilecito | 10-05-2026 09:45 | 24,9 | 12,2 | 0 | 0 | 303 | 389,4 | 935,6 |
| 39 | Monte Patria - Chilecito | 10-05-2026 09:30 | 23,3 | 11,6 | 0 | 0 | 303 | 45,6 | 935,6 |
| 38 | Monte Patria - Chilecito | 10-05-2026 09:15 | 22,3 | 13,3 | 0 | 0 | 303 | 314,4 | 935,7 |
| 37 | Monte Patria - Chilecito | 10-05-2026 09:00 | 21,3 | 13,3 | 0 | 0 | 303 | 283,1 | 935,7 |
| 36 | Monte Patria - Chilecito | 10-05-2026 08:45 | 19,1 | 17,4 | 0 | 0 | 303 | 40,6 | 935,6 |
| 35 | Monte Patria - Chilecito | 10-05-2026 08:30 | 18,9 | 15,2 | 0 | 0 | 303 | 55,6 | 935,7 |
| 34 | Monte Patria - Chilecito | 10-05-2026 08:15 | 15,9 | 16,8 | 0 | 0 | 303 | 161,9 | 935,7 |
| 33 | Monte Patria - Chilecito | 10-05-2026 08:00 | 12,6 | 17,6 | 0 | 0 | 303 | 10,6 | 935,5 |
| 32 | Monte Patria - Chilecito | 10-05-2026 07:45 | 12,9 | 16,9 | 0 | 0 | 303 | 6,9 | 935,4 |
| 31 | Monte Patria - Chilecito | 10-05-2026 07:30 | 12,3 | 17,4 | 0 | 0 | 303 | 4,4 | 935,3 |
| 30 | Monte Patria - Chilecito | 10-05-2026 07:15 | 12,4 | 17,7 | 0 | 0 | 303 | 0,6 | 935,4 |
| 29 | Monte Patria - Chilecito | 10-05-2026 07:00 | 12,2 | 18,3 | 0 | 0 | 303 | 0,6 | 935,3 |
| 28 | Monte Patria - Chilecito | 10-05-2026 06:45 | 12,3 | 18,9 | 0 | 0 | 303 | 0,6 | 935,3 |
| 27 | Monte Patria - Chilecito | 10-05-2026 06:30 | 11,3 | 19,4 | 0 | 0 | 303 | 0,6 | 935,2 |
| 26 | Monte Patria - Chilecito | 10-05-2026 06:15 | 11,8 | 19,5 | 0 | 0 | 303 | 0,6 | 935,2 |
| 25 | Monte Patria - Chilecito | 10-05-2026 06:00 | 12 | 19,1 | 0 | 0 | 303 | 0,6 | 935,1 |
| 24 | Monte Patria - Chilecito | 10-05-2026 05:45 | 12 | 19,3 | 0 | 0 | 303 | 0,6 | 935,1 |
| 23 | Monte Patria - Chilecito | 10-05-2026 05:30 | 11,1 | 20,1 | 0 | 0 | 303 | 0,6 | 935,1 |
| 22 | Monte Patria - Chilecito | 10-05-2026 05:15 | 10,9 | 20,9 | 0 | 0 | 303 | 0,6 | 935,2 |
| 21 | Monte Patria - Chilecito | 10-05-2026 05:00 | 11,5 | 21,1 | 0 | 0 | 303 | 0,6 | 935,2 |
| 20 | Monte Patria - Chilecito | 10-05-2026 04:45 | 11,3 | 21,7 | 0 | 0 | 303 | 0,6 | 935,2 |
| 19 | Monte Patria - Chilecito | 10-05-2026 04:30 | 10,9 | 23,4 | 0 | 0 | 303 | 0,6 | 935,4 |
| 18 | Monte Patria - Chilecito | 10-05-2026 04:15 | 11,2 | 22,6 | 0 | 0 | 305 | 0,6 | 935,2 |
| 17 | Monte Patria - Chilecito | 10-05-2026 04:00 | 10,5 | 25,5 | 0 | 0 | 305 | 0,6 | 935,4 |
| 16 | Monte Patria - Chilecito | 10-05-2026 03:45 | 10,6 | 25,8 | 0 | 0 | 305 | 0,6 | 935,4 |
| 15 | Monte Patria - Chilecito | 10-05-2026 03:30 | 10 | 27,4 | 0 | 0 | 305 | 0,6 | 935,4 |
| 14 | Monte Patria - Chilecito | 10-05-2026 03:15 | 10,5 | 28,8 | 0 | 0 | 305 | 0,6 | 935,5 |
| 13 | Monte Patria - Chilecito | 10-05-2026 03:00 | 11 | 27,9 | 0 | 0 | 305 | 0,6 | 935,6 |
| 12 | Monte Patria - Chilecito | 10-05-2026 02:45 | 10,6 | 29,2 | 0 | 0 | 305 | 0,6 | 935,7 |
| 11 | Monte Patria - Chilecito | 10-05-2026 02:30 | 10,7 | 31,1 | 0 | 0 | 305 | 0,6 | 935,8 |
| 10 | Monte Patria - Chilecito | 10-05-2026 02:15 | 10,4 | 31,1 | 0 | 0 | 305 | 0,6 | 935,9 |
| 9 | Monte Patria - Chilecito | 10-05-2026 02:00 | 10,8 | 30,3 | 0 | 0 | 305 | 0,6 | 935,7 |
| 8 | Monte Patria - Chilecito | 10-05-2026 01:45 | 10,6 | 33,6 | 0 | 0 | 305 | 0,6 | 935,7 |
| 7 | Monte Patria - Chilecito | 10-05-2026 01:30 | 10,9 | 33,6 | 0 | 0 | 305 | 0,6 | 935,8 |
| 6 | Monte Patria - Chilecito | 10-05-2026 01:15 | 11,1 | 34 | 0 | 0 | 303 | 0,6 | 935,5 |
| 5 | Monte Patria - Chilecito | 10-05-2026 01:00 | 11,6 | 34,2 | 0 | 0 | 303 | 0,6 | 935,9 |
| 4 | Monte Patria - Chilecito | 10-05-2026 00:45 | 9,3 | 42,4 | 0 | 0 | 303 | 0,6 | 935,9 |
| 3 | Monte Patria - Chilecito | 10-05-2026 00:30 | 9 | 47,7 | 0 | 0 | 303 | 0,6 | 936 |
| 2 | Monte Patria - Chilecito | 10-05-2026 00:15 | 9 | 52,9 | 0 | 0 | 303 | 0,6 | 936 |
| 1 | Monte Patria - Chilecito | 10-05-2026 00:00 | 9,2 | 50,1 | 0 | 0 | 303 | 0,6 | 936,2 |